TimeMDT,TemperatureF,Dew PointF,Humidity,Sea Level PressureIn,VisibilityMPH,Wind Direction,Wind SpeedMPH,Gust SpeedMPH,PrecipitationIn,Events,Conditions,WindDirDegrees,DateUTC
12:53 AM,64.0,61.0,90,29.84,10.0,Calm,Calm,-,N/A,,Mostly Cloudy,0,2013-09-15 06:53:00
1:53 AM,66.9,59.0,76,29.85,10.0,NNW,11.5,-,N/A,,Overcast,340,2013-09-15 07:53:00
2:53 AM,63.0,59.0,87,29.86,10.0,North,9.2,-,0.00,,Mostly Cloudy,10,2013-09-15 08:53:00
3:53 AM,61.0,59.0,93,29.87,10.0,North,4.6,-,N/A,,Mostly Cloudy,360,2013-09-15 09:53:00
4:23 AM,62.6,59.0,88,29.99,10.0,North,6.9,-,N/A,,Overcast,360,2013-09-15 10:23:00
4:38 AM,60.8,59.0,94,29.99,10.0,North,6.9,-,N/A,,Overcast,10,2013-09-15 10:38:00
4:53 AM,61.0,59.0,93,29.88,10.0,NNE,8.1,-,N/A,,Overcast,30,2013-09-15 10:53:00
5:53 AM,60.1,59.0,96,29.90,10.0,North,8.1,-,N/A,,Mostly Cloudy,350,2013-09-15 11:53:00
6:28 AM,60.8,57.2,88,30.03,10.0,NNW,9.2,-,N/A,,Mostly Cloudy,340,2013-09-15 12:28:00
6:37 AM,60.8,57.2,88,30.03,10.0,NNW,11.5,-,N/A,,Mostly Cloudy,340,2013-09-15 12:37:00
6:53 AM,60.1,59.0,96,29.95,10.0,North,10.4,-,N/A,,Overcast,350,2013-09-15 12:53:00
7:53 AM,63.0,60.1,90,29.96,10.0,North,17.3,21.9,N/A,,Overcast,360,2013-09-15 13:53:00
8:49 AM,62.6,60.8,94,30.09,4.0,NNE,17.3,-,N/A,,Overcast,20,2013-09-15 14:49:00
8:53 AM,62.1,60.1,93,30.00,4.0,North,16.1,-,N/A,,Overcast,360,2013-09-15 14:53:00
9:35 AM,62.6,60.8,94,30.12,1.8,NNE,15.0,21.9,N/A,,Overcast,20,2013-09-15 15:35:00
9:53 AM,62.1,60.1,93,30.04,2.5,NNE,13.8,-,0.00,Rain,Light Rain,20,2013-09-15 15:53:00
10:00 AM,60.8,60.8,100,30.13,5.0,North,16.1,-,0.00,,Overcast,10,2013-09-15 16:00:00
10:38 AM,60.8,60.8,100,30.15,1.8,NNE,17.3,23.0,0.00,Rain,Light Rain,20,2013-09-15 16:38:00
10:50 AM,60.8,60.8,100,30.16,3.0,NNE,17.3,21.9,0.00,Rain,Light Rain,20,2013-09-15 16:50:00
10:53 AM,61.0,60.1,97,30.07,4.0,NNE,15.0,-,0.00,Rain,Light Rain,20,2013-09-15 16:53:00
11:29 AM,60.8,60.8,100,30.16,4.0,NE,17.3,-,0.01,,Overcast,40,2013-09-15 17:29:00
11:53 AM,61.0,60.1,97,30.07,5.0,NNE,16.1,-,0.01,,Overcast,30,2013-09-15 17:53:00
12:16 PM,60.8,59.0,94,30.17,4.0,NE,17.3,-,N/A,,Overcast,40,2013-09-15 18:16:00
12:53 PM,61.0,57.9,90,30.10,10.0,NE,15.0,20.7,N/A,,Overcast,40,2013-09-15 18:53:00
1:53 PM,61.0,57.0,87,30.11,10.0,NE,13.8,-,N/A,,Overcast,40,2013-09-15 19:53:00
2:24 PM,59.0,55.4,88,30.21,10.0,NNE,16.1,21.9,N/A,,Overcast,30,2013-09-15 20:24:00
2:53 PM,59.0,55.9,90,30.14,10.0,NE,16.1,20.7,N/A,,Overcast,40,2013-09-15 20:53:00
3:20 PM,60.8,55.4,82,30.21,10.0,NE,13.8,-,N/A,,Overcast,40,2013-09-15 21:20:00
3:53 PM,59.0,55.0,87,30.13,10.0,NNE,15.0,-,N/A,,Overcast,30,2013-09-15 21:53:00
4:53 PM,57.9,54.0,87,30.14,10.0,NNE,13.8,20.7,N/A,,Overcast,20,2013-09-15 22:53:00
5:53 PM,57.9,54.0,87,30.18,10.0,NNE,10.4,-,N/A,,Overcast,30,2013-09-15 23:53:00
6:53 PM,57.0,53.1,87,30.17,10.0,NNE,10.4,-,N/A,,Overcast,30,2013-09-16 00:53:00
7:53 PM,57.0,53.1,87,30.19,10.0,NE,11.5,-,N/A,,Overcast,50,2013-09-16 01:53:00
8:53 PM,57.0,54.0,89,30.22,10.0,NE,6.9,-,N/A,,Overcast,40,2013-09-16 02:53:00
9:29 PM,57.2,53.6,88,30.27,10.0,North,6.9,-,N/A,,Overcast,10,2013-09-16 03:29:00
9:50 PM,57.2,53.6,88,30.28,10.0,NNE,5.8,-,N/A,,Overcast,20,2013-09-16 03:50:00
9:53 PM,57.0,54.0,89,30.21,10.0,NNE,5.8,-,N/A,,Overcast,20,2013-09-16 03:53:00
10:22 PM,57.2,53.6,88,30.28,10.0,NNE,5.8,-,N/A,,Overcast,20,2013-09-16 04:22:00
10:48 PM,57.2,53.6,88,30.28,10.0,NNE,6.9,-,N/A,,Overcast,20,2013-09-16 04:48:00
10:53 PM,57.0,54.0,89,30.22,10.0,North,6.9,-,N/A,,Overcast,10,2013-09-16 04:53:00
11:08 PM,57.2,53.6,88,30.29,10.0,North,5.8,-,N/A,,Overcast,10,2013-09-16 05:08:00
11:20 PM,57.2,53.6,88,30.28,10.0,NNE,6.9,-,N/A,,Overcast,20,2013-09-16 05:20:00
11:51 PM,57.2,53.6,88,30.28,10.0,NNE,9.2,-,N/A,,Overcast,20,2013-09-16 05:51:00
11:53 PM,57.0,54.0,89,30.22,10.0,NNE,6.9,-,N/A,,Overcast,30,2013-09-16 05:53:00